FW6662 Weather Reports


Display with metric or nautical units.
time (UTC)temp
F
wind
direction
speed
MPH
gust
MPH
rain 1hr
in
rain 24hr
in
rain mn
in
humidity
%
barometer
mb
20240303131005 45 225 1.0 4.0 0.00 0.65 0.03 99 1024.1
20240303130505 45 225 0.0 4.0 0.00 0.65 0.03 99 1024.0
20240303130005 45 258 0.0 4.0 0.00 0.65 0.03 99 1023.9
20240303125504 44 278 0.0 3.0 0.00 0.65 0.03 99 1023.9
20240303125004 44 302 0.0 3.0 0.00 0.65 0.03 99 1024.0
20240303124504 44 352 0.0 3.0 0.00 0.65 0.03 99 1023.9
20240303124005 44 9 0.0 3.0 0.00 0.66 0.03 99 1023.8
20240303123505 44 9 0.0 1.0 0.00 0.66 0.03 99 1023.8
20240303123004 44 9 0.0 1.0 0.00 0.67 0.03 99 1023.8
20240303122504 44 10 0.0 1.0 0.00 0.67 0.03 99 1023.8
20240303122004 44 15 0.0 1.0 0.00 0.67 0.03 99 1023.7
20240303121505 44 21 0.0 1.0 0.00 0.67 0.03 98 1023.5
20240303121005 44 30 0.0 1.0 0.00 0.67 0.03 98 1023.6
20240303120504 44 345 0.0 3.0 0.00 0.67 0.03 98 1023.4
20240303120005 44 295 0.0 3.0 0.00 0.67 0.03 98 1023.3
20240303115505 43 287 1.0 3.0 0.00 0.67 0.03 98 1023.3
20240303115005 44 287 1.0 3.0 0.00 0.67 0.03 98 1023.3
20240303114505 43 285 0.0 3.0 0.00 0.67 0.03 98 1023.3
20240303114005 44 281 0.0 3.0 0.00 0.67 0.03 98 1023.3
20240303113505 44 284 0.0 3.0 0.00 0.68 0.03 98 1023.3
20240303113004 44 291 0.0 1.0 0.00 0.68 0.03 98 1023.2
20240303112525 44 304 0.0 1.0 0.00 0.68 0.03 98 1023.2
20240303112005 44 304 0.0 1.0 0.00 0.68 0.03 98 1023.0
20240303111504 44 331 1.0 4.0 0.00 0.68 0.03 98 1022.9
20240303111005 44 352 1.0 4.0 0.00 0.68 0.03 98 1022.8
20240303110505 44 5 1.0 3.0 0.00 0.68 0.03 98 1022.7
20240303110004 44 5 0.0 3.0 0.00 0.68 0.03 98 1022.7
20240303105504 44 5 0.0 1.0 0.00 0.68 0.03 98 1022.6
20240303105004 44 5 0.0 1.0 0.00 0.68 0.03 98 1022.6
20240303104504 44 6 0.0 3.0 0.00 0.68 0.03 98 1022.7
20240303104005 44 8 0.0 3.0 0.00 0.68 0.03 98 1022.6
20240303103504 44 4 0.0 3.0 0.00 0.68 0.03 98 1022.6
20240303103004 44 9 0.0 3.0 0.00 0.68 0.03 98 1022.6
20240303102504 44 355 1.0 4.0 0.00 0.68 0.03 99 1022.6
20240303102004 44 5 1.0 4.0 0.00 0.68 0.03 99 1022.6
20240303101505 44 81 0.0 3.0 0.00 0.68 0.03 99 1022.5
20240303101004 44 334 1.0 4.0 0.00 0.68 0.03 99 1022.5
20240303100525 44 326 1.0 4.0 0.01 0.68 0.03 99 1022.5
20240303100004 44 330 0.0 4.0 0.01 0.68 0.03 99 1022.3
20240303095504 44 336 0.0 4.0 0.01 0.68 0.03 98 1022.2
20240303095004 44 335 0.0 1.0 0.01 0.68 0.03 98 1022.2
20240303094505 44 335 0.0 3.0 0.01 0.68 0.03 98 1022.2
20240303094005 44 5 0.0 3.0 0.01 0.68 0.03 98 1022.1
20240303093504 44 8 0.0 3.0 0.01 0.68 0.03 98 1022.0
20240303093004 44 359 0.0 3.0 0.01 0.68 0.03 98 1021.9
20240303092504 44 356 0.0 3.0 0.01 0.68 0.03 99 1021.8
20240303092004 44 351 0.0 3.0 0.01 0.69 0.03 99 1021.8
20240303091504 44 350 0.0 3.0 0.01 0.69 0.03 99 1021.7
20240303091005 44 354 0.0 3.0 0.01 0.69 0.03 98 1021.7
20240303090504 44 358 0.0 1.0 0.00 0.68 0.02 98 1021.6
20240303090004 44 1 0.0 4.0 0.00 0.68 0.02 98 1021.5
20240303085504 44 333 0.0 4.0 0.00 0.68 0.02 98 1021.5
20240303085004 44 320 0.0 4.0 0.00 0.69 0.02 98 1021.4
20240303084504 44 330 1.0 6.0 0.00 0.69 0.02 98 1021.3
20240303084005 44 325 1.0 6.0 0.00 0.69 0.02 98 1021.3
20240303083504 44 314 1.0 6.0 0.00 0.69 0.02 98 1021.3
20240303083005 44 322 1.0 4.0 0.00 0.69 0.02 98 1021.3
20240303082504 44 318 1.0 4.0 0.00 0.69 0.02 98 1021.3
20240303082005 44 307 1.0 6.0 0.00 0.69 0.02 98 1021.3
20240303081504 44 300 1.0 6.0 0.00 0.69 0.02 98 1021.3
20240303081004 44 301 1.0 6.0 0.00 0.70 0.02 98 1021.3
20240303080504 44 309 1.0 6.0 0.00 0.70 0.02 98 1021.2
20240303080004 44 317 1.0 6.0 0.00 0.70 0.02 98 1021.1
20240303075504 44 322 1.0 4.0 0.00 0.70 0.02 98 1021.1
20240303075004 43 322 1.0 3.0 0.01 0.70 0.02 98 1021.0
20240303074504 43 320 1.0 7.0 0.01 0.70 0.02 98 1021.0
20240303074004 44 317 3.0 7.0 0.01 0.70 0.02 98 1021.0
20240303073504 43 305 1.0 7.0 0.01 0.70 0.02 98 1021.0
20240303073004 43 239 0.0 4.0 0.01 0.70 0.02 98 1021.0
20240303072504 43 204 0.0 1.0 0.01 0.70 0.02 98 1021.0
20240303072004 43 202 0.0 3.0 0.01 0.70 0.02 98 1021.0
20240303071504 43 203 0.0 3.0 0.01 0.70 0.02 98 1020.9
20240303071004 43 180 0.0 3.0 0.01 0.70 0.02 98 1020.9
20240303070504 43 35 0.0 1.0 0.01 0.70 0.02 98 1020.9
20240303070004 43 35 0.0 1.0 0.01 0.70 0.02 98 1020.9
20240303065504 43 35 0.0 1.0 0.01 0.70 0.02 98 1020.9
20240303065004 43 35 0.0 3.0 0.00 0.69 0.02 98 1020.9
20240303064504 44 35 0.0 3.0 0.00 0.69 0.01 98 1020.8
20240303064025 44 33 0.0 1.0 0.01 0.69 0.01 98 1020.9
20240303063504 44 20 0.0 3.0 0.01 0.69 0.01 98 1020.9
20240303063005 44 7 0.0 3.0 0.01 0.69 0.01 98 1020.9
20240303062504 44 4 0.0 3.0 0.01 0.69 0.01 98 1020.9
20240303062005 44 14 1.0 10.0 0.01 0.69 0.01 98 1020.8
20240303061504 44 350 1.0 10.0 0.01 0.69 0.01 98 1020.8
20240303061004 44 268 1.0 6.0 0.01 0.69 0.01 98 1020.7
20240303060504 44 281 1.0 6.0 0.01 0.69 0.01 98 1020.6
20240303060004 44 293 1.0 3.0 0.01 0.69 0.01 98 1020.6
20240303055504 44 325 1.0 6.0 0.01 0.69 0.01 98 1020.5
20240303055004 44 326 1.0 6.0 0.01 0.69 0.01 98 1020.5
20240303054504 44 301 1.0 4.0 0.02 0.69 0.01 98 1020.5
20240303054004 44 292 1.0 6.0 0.01 0.68 0.00 98 1020.4
20240303053504 44 302 1.0 6.0 0.01 0.68 0.00 98 1020.4
20240303053004 44 300 1.0 4.0 0.01 0.68 0.00 98 1020.4
20240303052504 43 291 1.0 4.0 0.01 0.68 0.00 98 1020.4
20240303052004 43 303 1.0 4.0 0.01 0.68 0.00 98 1020.4
20240303051504 43 306 1.0 4.0 0.01 0.68 0.00 98 1020.4
20240303051004 43 314 0.0 4.0 0.01 0.68 0.00 98 1020.4
20240303050504 43 328 0.0 3.0 0.01 0.68 0.00 98 1020.3
20240303050005 43 330 0.0 3.0 0.01 0.68 0.00 98 1020.4
20240303045504 43 0 0.0 0.0 0.01 0.68 0.68 98 1020.3
20240303045004 43 338 0.0 1.0 0.01 0.68 0.68 98 1020.3
20240303044504 43 338 0.0 1.0 0.00 0.67 0.67 98 1020.4
20240303044004 43 338 0.0 1.0 0.00 0.67 0.67 98 1020.4
20240303043504 43 0 0.0 0.0 0.00 0.67 0.67 98 1020.3
20240303043025 43 0 0.0 0.0 0.00 0.67 0.67 98 1020.3
20240303042504 43 338 0.0 1.0 0.00 0.67 0.67 98 1020.3
20240303042004 43 338 0.0 1.0 0.00 0.67 0.67 98 1020.3
20240303041504 43 338 0.0 1.0 0.00 0.67 0.67 98 1020.1
20240303041004 43 338 0.0 1.0 0.00 0.67 0.67 98 1020.0
20240303040504 43 338 0.0 1.0 0.00 0.67 0.67 98 1020.1
20240303040004 43 338 0.0 1.0 0.00 0.67 0.67 98 1020.1
20240303035525 43 338 0.0 1.0 0.00 0.67 0.67 98 1020.2
20240303035004 43 338 0.0 1.0 0.00 0.67 0.67 98 1020.1
20240303034504 43 0 0.0 0.0 0.01 0.67 0.67 98 1020.1
20240303034004 43 0 0.0 0.0 0.01 0.67 0.67 98 1020.1
20240303033504 43 0 0.0 0.0 0.01 0.67 0.67 98 1020.1
20240303033004 43 0 0.0 0.0 0.01 0.67 0.67 98 1020.2
20240303032504 43 338 0.0 1.0 0.01 0.67 0.67 98 1020.2
20240303032025 43 338 0.0 1.0 0.01 0.67 0.67 98 1020.2
20240303031504 43 0 0.0 0.0 0.01 0.67 0.67 98 1020.1
20240303031004 43 338 0.0 1.0 0.01 0.67 0.67 98 1020.1
20240303030504 43 338 0.0 1.0 0.01 0.67 0.67 98 1020.2
20240303030004 43 8 0.0 3.0 0.01 0.67 0.67 98 1020.2
20240303025504 43 24 0.0 4.0 0.01 0.67 0.67 98 1020.2
20240303025004 43 26 0.0 4.0 0.01 0.67 0.67 98 1020.2
20240303024504 43 162 0.0 3.0 0.00 0.66 0.66 98 1020.3
20240303024004 43 177 0.0 3.0 0.00 0.66 0.66 98 1020.4
20240303023504 43 189 0.0 1.0 0.00 0.66 0.66 98 1020.2
20240303023004 43 195 0.0 3.0 0.00 0.66 0.66 98 1020.2
20240303022504 43 208 0.0 3.0 0.00 0.66 0.66 98 1020.2
20240303022004 43 315 0.0 3.0 0.01 0.66 0.66 98 1020.2
20240303021504 43 23 0.0 4.0 0.01 0.66 0.66 98 1020.1
20240303021004 43 61 0.0 4.0 0.01 0.66 0.66 98 1020.1
20240303020504 43 76 1.0 4.0 0.01 0.66 0.66 98 1020.0
20240303020004 43 142 1.0 4.0 0.01 0.66 0.66 98 1020.0
20240303015504 44 160 1.0 4.0 0.01 0.66 0.66 98 1020.0
20240303015004 44 129 1.0 6.0 0.01 0.66 0.66 98 1019.9
20240303014504 44 100 1.0 6.0 0.01 0.66 0.66 98 1020.1
20240303014004 43 320 1.0 6.0 0.01 0.66 0.66 98 1020.1
20240303013504 43 309 1.0 9.0 0.01 0.66 0.66 98 1020.0
20240303013004 43 254 0.0 9.0 0.01 0.66 0.66 98 1020.0
20240303012504 43 209 0.0 4.0 0.01 0.66 0.66 98 1019.9
20240303012004 43 177 1.0 6.0 0.00 0.65 0.65 98 1020.0
20240303011524 43 108 1.0 6.0 0.01 0.65 0.65 98 1020.1
20240303011004 43 89 0.0 4.0 0.01 0.65 0.65 98 1020.1
20240303010503 43 103 1.0 3.0 0.01 0.65 0.65 98 1020.0
20240303010024 43 19 1.0 7.0 0.01 0.65 0.65 98 1020.0
20240303005504 43 34 1.0 7.0 0.02 0.65 0.65 98 1020.1
20240303005004 43 143 1.0 6.0 0.02 0.65 0.65 98 1020.2
20240303004504 43 138 1.0 6.0 0.02 0.65 0.65 98 1020.2
20240303004004 43 153 1.0 6.0 0.02 0.65 0.65 98 1020.1
20240303003504 43 170 1.0 6.0 0.03 0.65 0.65 97 1020.1
20240303003004 43 152 1.0 3.0 0.03 0.65 0.65 97 1020.1
20240303002504 43 9 0.0 3.0 0.03 0.65 0.65 97 1020.1
20240303002004 43 317 0.0 3.0 0.03 0.65 0.65 97 1020.2
20240303001503 43 2 1.0 9.0 0.03 0.64 0.64 97 1020.1
20240303001024 43 15 1.0 9.0 0.03 0.64 0.64 98 1020.2
20240303000504 43 50 1.0 6.0 0.03 0.64 0.64 98 1020.2
20240303000004 43 51 1.0 7.0 0.03 0.64 0.64 98 1020.2
20240302235504 43 16 1.0 7.0 0.03 0.63 0.63 97 1020.3
20240302235004 43 343 1.0 10.0 0.03 0.63 0.63 97 1020.3
20240302234524 43 328 3.0 10.0 0.03 0.63 0.63 97 1020.3
20240302234004 43 325 1.0 9.0 0.03 0.63 0.63 97 1020.3
20240302233504 43 343 1.0 6.0 0.03 0.62 0.62 97 1020.4
20240302233004 43 8 0.0 6.0 0.03 0.62 0.62 97 1020.4
20240302232504 43 20 1.0 6.0 0.03 0.62 0.62 97 1020.4
20240302232004 43 19 1.0 6.0 0.04 0.62 0.62 97 1020.4
20240302231504 43 13 1.0 6.0 0.04 0.61 0.61 97 1020.4
20240302231004 43 336 1.0 4.0 0.05 0.61 0.61 97 1020.4
20240302230503 43 331 1.0 6.0 0.06 0.61 0.61 97 1020.3
20240302230004 43 332 1.0 6.0 0.07 0.61 0.61 97 1020.4
20240302225504 43 331 1.0 6.0 0.08 0.60 0.60 97 1020.5
20240302225003 43 319 1.0 9.0 0.09 0.60 0.60 97 1020.6
20240302224504 44 320 1.0 9.0 0.10 0.60 0.60 97 1020.7
20240302224003 44 340 1.0 4.0 0.11 0.60 0.60 97 1020.8
20240302223503 44 345 0.0 4.0 0.11 0.59 0.59 97 1020.7
20240302223024 44 328 1.0 4.0 0.11 0.59 0.59 97 1020.8
20240302222504 44 331 1.0 4.0 0.11 0.59 0.59 97 1020.7
20240302222004 44 323 1.0 4.0 0.10 0.58 0.58 97 1020.9
20240302221524 44 334 1.0 4.0 0.09 0.57 0.57 97 1020.8
20240302221004 44 350 1.0 4.0 0.08 0.56 0.56 97 1020.9
20240302220504 44 331 1.0 3.0 0.07 0.55 0.55 97 1020.9
20240302220004 44 320 1.0 4.0 0.06 0.54 0.54 97 1020.8
20240302215524 44 321 1.0 4.0 0.04 0.52 0.52 97 1020.9
20240302215004 44 341 1.0 4.0 0.03 0.51 0.51 97 1020.8
20240302214524 44 353 1.0 4.0 0.02 0.50 0.50 97 1020.8
20240302214024 44 358 3.0 6.0 0.01 0.49 0.49 97 1020.9
20240302213504 44 353 3.0 6.0 0.00 0.48 0.48 97 1020.8
20240302213004 44 359 3.0 6.0 0.00 0.48 0.48 97 1020.9
20240302212504 44 5 1.0 6.0 0.00 0.48 0.48 97 1020.9
20240302212003 44 341 1.0 3.0 0.00 0.48 0.48 97 1020.9
20240302211504 44 338 1.0 3.0 0.00 0.48 0.48 97 1021.0
20240302211003 44 338 1.0 4.0 0.00 0.48 0.48 97 1021.0
20240302210503 44 338 3.0 4.0 0.00 0.48 0.48 97 1021.0
20240302210003 44 338 1.0 4.0 0.00 0.48 0.48 97 1021.0
20240302205524 44 337 1.0 3.0 0.00 0.48 0.48 97 1021.0
20240302205004 44 331 1.0 6.0 0.00 0.48 0.48 97 1021.0
20240302204524 44 338 3.0 6.0 0.00 0.48 0.48 97 1021.0
20240302204024 44 355 1.0 6.0 0.00 0.48 0.48 97 1021.0
20240302203503 44 9 1.0 4.0 0.00 0.48 0.48 96 1021.0
20240302203024 44 12 1.0 6.0 0.00 0.48 0.48 96 1021.0
20240302202503 44 22 1.0 6.0 0.00 0.48 0.48 96 1021.1
20240302202003 44 32 1.0 6.0 0.00 0.48 0.48 96 1021.3
20240302201524 44 32 1.0 4.0 0.00 0.48 0.48 96 1021.2
20240302201003 44 35 1.0 4.0 0.00 0.48 0.48 96 1021.2
20240302200503 44 50 1.0 4.0 0.00 0.48 0.48 96 1021.3
20240302200024 44 91 1.0 4.0 0.00 0.48 0.48 96 1021.4
20240302195524 44 65 1.0 4.0 0.00 0.48 0.48 96 1021.4
20240302195003 44 14 1.0 3.0 0.00 0.48 0.48 96 1021.6
20240302194524 44 285 1.0 3.0 0.01 0.48 0.48 96 1021.6
20240302194024 44 242 1.0 3.0 0.01 0.48 0.48 96 1021.7
20240302193503 44 155 3.0 10.0 0.01 0.48 0.48 96 1021.8
20240302193003 44 144 3.0 10.0 0.02 0.48 0.48 96 1021.8
20240302192503 44 136 3.0 10.0 0.02 0.48 0.48 96 1021.8
20240302192003 44 101 3.0 9.0 0.03 0.48 0.48 96 1021.9
20240302191503 44 85 1.0 9.0 0.04 0.48 0.48 96 1022.2
20240302191024 45 286 1.0 4.0 0.05 0.48 0.48 97 1022.4
20240302190503 44 204 1.0 4.0 0.06 0.48 0.48 96 1022.2
20240302190004 45 147 1.0 6.0 0.07 0.48 0.48 97 1022.4
20240302185503 45 118 1.0 6.0 0.08 0.48 0.48 97 1022.2
20240302185003 45 64 1.0 4.0 0.08 0.48 0.48 97 1022.3
20240302184503 45 147 1.0 7.0 0.08 0.47 0.47 97 1022.4
20240302184003 45 129 1.0 7.0 0.08 0.47 0.47 97 1022.6
20240302183503 44 113 1.0 10.0 0.08 0.47 0.47 97 1022.7
20240302183003 44 118 1.0 10.0 0.07 0.46 0.46 97 1022.9
20240302182503 44 143 1.0 6.0 0.08 0.46 0.46 97 1022.9
20240302182024 44 143 1.0 6.0 0.07 0.45 0.45 97 1023.0
20240302181503 44 141 3.0 13.0 0.06 0.44 0.44 97 1022.9
20240302181003 44 139 3.0 13.0 0.05 0.43 0.43 97 1023.2
20240302180503 44 148 4.0 20.0 0.04 0.42 0.42 97 1023.3
20240302180025 44 150 4.0 20.0 0.04 0.41 0.41 97 1023.4
20240302175503 44 154 3.0 13.0 0.03 0.40 0.40 98 1023.4
20240302175005 44 184 1.0 9.0 0.03 0.40 0.40 98 1023.6
20240302174505 44 185 1.0 6.0 0.02 0.39 0.39 98 1023.7
20240302174005 44 152 1.0 6.0 0.02 0.39 0.39 98 1023.8
20240302173505 44 169 1.0 4.0 0.02 0.39 0.39 98 1023.8
20240302173005 44 248 0.0 4.0 0.03 0.39 0.39 98 1024.0
20240302172505 44 317 1.0 4.0 0.02 0.38 0.38 98 1024.0
20240302172005 43 273 1.0 4.0 0.03 0.38 0.38 98 1024.0
20240302171505 43 296 1.0 6.0 0.03 0.38 0.38 98 1024.2
20240302171005 43 327 1.0 6.0 0.04 0.38 0.38 98 1024.4
20240302170505 42 338 1.0 4.0 0.04 0.38 0.38 98 1024.4
20240302170005 42 343 1.0 4.0 0.04 0.37 0.37 98 1024.6
20240302165505 42 348 1.0 4.0 0.05 0.37 0.37 98 1024.7
20240302165005 42 350 1.0 4.0 0.06 0.37 0.37 98 1024.8
20240302164506 42 350 1.0 4.0 0.00 0.00 6.36 98 1024.9
20240302164005 42 17 1.0 4.0 0.09 0.37 0.37 98 1024.9
20240302163505 42 28 1.0 3.0 0.10 0.37 0.37 98 1025.1
20240302163005 42 45 1.0 3.0 0.10 0.36 0.36 98 1025.1
20240302162505 41 83 0.0 3.0 0.12 0.36 0.36 98 1025.4
20240302162005 41 138 0.0 1.0 0.12 0.35 0.35 98 1025.4
20240302161505 41 138 0.0 1.0 0.13 0.35 0.35 98 1025.5
20240302161005 41 173 0.0 6.0 0.13 0.34 0.34 98 1025.6
20240302160505 40 151 1.0 6.0 0.14 0.34 0.34 98 1025.7
20240302160005 40 65 0.0 4.0 0.14 0.33 0.33 97 1025.8
20240302155505 40 323 0.0 3.0 0.14 0.32 0.32 97 1025.9
20240302155005 40 323 1.0 3.0 0.15 0.31 0.31 97 1025.9
20240302154505 40 323 1.0 3.0 0.14 0.30 0.30 97 1026.0
20240302154005 40 327 1.0 4.0 0.13 0.28 0.28 97 1026.2
20240302153505 40 334 3.0 4.0 0.13 0.27 0.27 97 1026.3
20240302153005 40 327 1.0 4.0 0.13 0.26 0.26 97 1026.4
20240302152505 39 296 1.0 4.0 0.12 0.24 0.24 97 1026.5
20240302152005 39 203 1.0 4.0 0.13 0.23 0.23 97 1026.5
20240302151505 39 165 1.0 3.0 0.13 0.22 0.22 97 1026.5
20240302151005 39 165 0.0 3.0 0.13 0.21 0.21 97 1026.6
20240302150505 39 164 0.0 3.0 0.12 0.20 0.20 97 1026.6
20240302150005 39 161 0.0 1.0 0.11 0.19 0.19 97 1026.7
20240302145505 39 161 0.0 1.0 0.11 0.18 0.18 97 1026.6
20240302145005 39 159 0.0 6.0 0.09 0.16 0.16 97 1026.6
20240302144505 39 160 1.0 6.0 0.09 0.16 0.16 97 1026.7
20240302144005 39 165 0.0 3.0 0.08 0.15 0.15 97 1026.7
20240302143505 39 165 0.0 1.0 0.07 0.14 0.14 97 1026.8
20240302143005 39 165 0.0 1.0 0.07 0.13 0.13 96 1026.7
20240302142505 39 165 0.0 1.0 0.06 0.12 0.12 97 1026.8
20240302142005 39 163 0.0 1.0 0.04 0.10 0.10 97 1026.7
20240302141505 39 162 0.0 1.0 0.03 0.09 0.09 97 1026.9
20240302141005 39 161 0.0 1.0 0.02 0.08 0.08 97 1026.9
20240302140505 39 164 0.0 3.0 0.02 0.08 0.08 97 1027.0
20240302140005 38 162 1.0 3.0 0.02 0.08 0.08 97 1026.9
20240302135505 38 161 1.0 4.0 0.01 0.07 0.07 97 1026.9
20240302135005 38 169 0.0 6.0 0.01 0.07 0.07 97 1027.0
20240302134505 38 177 1.0 6.0 0.01 0.07 0.07 96 1027.1
20240302134005 38 175 1.0 4.0 0.02 0.07 0.07 96 1027.2
20240302133504 38 168 1.0 6.0 0.02 0.07 0.07 96 1027.3
20240302133005 38 164 0.0 6.0 0.02 0.06 0.06 96 1027.5
20240302132505 38 161 0.0 3.0 0.02 0.06 0.06 96 1027.6
20240302132005 38 161 1.0 3.0 0.02 0.06 0.06 96 1027.5
20240302131505 38 161 0.0 3.0 0.02 0.06 0.06 96 1027.6